QPF
0.06 0.05 0.04 0.04 0.03 0.03 0.04 0.04 0.04 0.04 0.03 0.01 0.01 0.01 0.01 0.01 0.01 0.01 0.01 0.01 0.01 0.01 0.01 0.00 0.00 0.01 0.01 0.01 0.01 0.02 0.04 0.04 0.03 0.04 0.05 0.04 0.03 0.02
0.04 0.04 0.04 0.02 0.02 0.02 0.02 0.02 0.02 0.03 0.03 0.02 0.01 0.01 0.01 0.01 0.01 0.01 0.01 0.01 0.01 0.01 0.01 0.01 0.01 0.01 0.01 0.01 0.01 0.02 0.03 0.04 0.03 0.03 0.03 0.03 0.03 0.03
0.03 0.03 0.03 0.03 0.02 0.02 0.02 0.02 0.02 0.03 0.02 0.01 0.01 0.01 0.01 0.01 0.01 0.00 0.00 0.00 0.00 0.00 0.00 0.00 0.01 0.01 0.01 0.01 0.01 0.01 0.02 0.02 0.03 0.03 0.03 0.03 0.03 0.02
0.02 0.02 0.02 0.02 0.03 0.02 0.02 0.02 0.02 0.02 0.02 0.01 0.01 0.01 0.01 0.01 0.01 0.01 0.00 0.00 0.00 0.00 0.00 0.00 0.00 0.01 0.01 0.01 0.01 0.01 0.01 0.01 0.02 0.02 0.02 0.02 0.02 0.02
0.01 0.01 0.01 0.01 0.02 0.02 0.02 0.02 0.02 0.02 0.02 0.02 0.01 0.01 0.01 0.01 0.01 0.01 0.01 0.01 0.01 0.00 0.00 0.00 0.00 0.00 0.01 0.01 0.01 0.01 0.01 0.01 0.01 0.01 0.02 0.02 0.02 0.02
0.01 0.01 0.01 0.01 0.01 0.02 0.02 0.02 0.02 0.02 0.02 0.02 0.02 0.01 0.01 0.01 0.01 0.01 0.01 0.01 0.01 0.01 0.01 0.00 0.00 0.00 0.01 0.01 0.01 0.01 0.01 0.01 0.01 0.01 0.02 0.02 0.02 0.02
0.02 0.01 0.01 0.01 0.01 0.02 0.02 0.02 0.03 0.02 0.02 0.02 0.02 0.02 0.02 0.03 0.02 0.01 0.01 0.00 0.00 0.01 0.01 0.01 0.00 0.00 0.01 0.02 0.02 0.01 0.01 0.01 0.01 0.01 0.02 0.03 0.03 0.03
0.02 0.01 0.01 0.01 0.01 0.01 0.02 0.02 0.03 0.02 0.03 0.03 0.03 0.03 0.03 0.03 0.03 0.03 0.02 0.01 0.01 0.00 0.01 0.01 0.01 0.01 0.01 0.01 0.03 0.02 0.02 0.02 0.01 0.01 0.01 0.02 0.03 0.03
0.03 0.02 0.02 0.02 0.01 0.01 0.02 0.02 0.02 0.03 0.03 0.03 0.03 0.03 0.03 0.03 0.03 0.04 0.03 0.03 0.01 0.00 0.01 0.01 0.01 0.01 0.01 0.01 0.02 0.02 0.01 0.01 0.01 0.01 0.01 0.01 0.01 0.02
0.03 0.02 0.02 0.02 0.02 0.02 0.02 0.02 0.02 0.02 0.02 0.02 0.02 0.02 0.02 0.03 0.03 0.04 0.04 0.04 0.03 0.02 0.01 0.01 0.01 0.01 0.01 0.01 0.01 0.01 0.01 0.01 0.01 0.01 0.01 0.01 0.01 0.02
0.03 0.03 0.02 0.02 0.02 0.03 0.02 0.02 0.02 0.02 0.02 0.03 0.03 0.03 0.04 0.05 0.05 0.05 0.05 0.05 0.04 0.03 0.01 0.02 0.01 0.01 0.01 0.01 0.01 0.01 0.01 0.01 0.01 0.01 0.01 0.01 0.01 0.01
0.03 0.03 0.03 0.02 0.02 0.03 0.03 0.03 0.03 0.03 0.03 0.03 0.03 0.03 0.04 0.04 0.05 0.05 0.06 0.06 0.05 0.04 0.02 0.02 0.02 0.02 0.02 0.01 0.01 0.01 0.01 0.01 0.01 0.01 0.01 0.01 0.02 0.02
0.02 0.02 0.02 0.02 0.03 0.03 0.03 0.02 0.03 0.03 0.03 0.03 0.04 0.04 0.04 0.04 0.04 0.04 0.05 0.06 0.07 0.05 0.03 0.04 0.03 0.03 0.03 0.02 0.01 0.01 0.01 0.01 0.01 0.01 0.01 0.01 0.02 0.02
0.03 0.02 0.02 0.02 0.02 0.02 0.02 0.02 0.02 0.02 0.03 0.03 0.04 0.04 0.04 0.04 0.04 0.04 0.04 0.05 0.06 0.05 0.04 0.04 0.05 0.04 0.04 0.03 0.02 0.01 0.01 0.01 0.01 0.01 0.01 0.01 0.01 0.01
0.03 0.02 0.02 0.02 0.02 0.02 0.02 0.02 0.02 0.02 0.02 0.02 0.03 0.03 0.04 0.04 0.04 0.04 0.04 0.05 0.05 0.04 0.04 0.04 0.04 0.04 0.04 0.05 0.04 0.03 0.02 0.01 0.01 0.01 0.01 0.01 0.01 0.02
0.03 0.03 0.02 0.02 0.03 0.03 0.03 0.02 0.02 0.02 0.02 0.02 0.02 0.03 0.03 0.04 0.05 0.04 0.05 0.05 0.04 0.04 0.04 0.04 0.04 0.04 0.05 0.05 0.04 0.03 0.02 0.02 0.01 0.01 0.01 0.01 0.02 0.03
0.03 0.03 0.03 0.03 0.03 0.03 0.03 0.02 0.02 0.02 0.02 0.02 0.02 0.03 0.03 0.04 0.04 0.05 0.05 0.05 0.05 0.04 0.04 0.04 0.04 0.04 0.04 0.04 0.04 0.03 0.02 0.02 0.02 0.01 0.01 0.02 0.02 0.03
0.04 0.03 0.03 0.02 0.02 0.02 0.03 0.02 0.02 0.02 0.02 0.02 0.03 0.03 0.04 0.04 0.04 0.05 0.06 0.06 0.05 0.04 0.04 0.04 0.03 0.04 0.04 0.04 0.04 0.04 0.03 0.02 0.02 0.01 0.01 0.02 0.03 0.04
0.04 0.02 0.02 0.02 0.02 0.02 0.02 0.02 0.02 0.02 0.02 0.02 0.03 0.04 0.04 0.05 0.05 0.05 0.06 0.06 0.05 0.04 0.04 0.04 0.04 0.04 0.04 0.04 0.03 0.04 0.03 0.02 0.02 0.02 0.02 0.02 0.04 0.04
0.03 0.03 0.02 0.01 0.02 0.02 0.02 0.02 0.02 0.02 0.02 0.02 0.02 0.03 0.04 0.05 0.05 0.05 0.05 0.05 0.05 0.04 0.04 0.04 0.04 0.04 0.05 0.05 0.05 0.05 0.04 0.03 0.02 0.02 0.02 0.02 0.03 0.03
0.03 0.03 0.02 0.01 0.01 0.02 0.02 0.02 0.02 0.02 0.02 0.02 0.02 0.03 0.04 0.04 0.04 0.04 0.04 0.04 0.04 0.04 0.03 0.03 0.03 0.03 0.03 0.04 0.05 0.04 0.03 0.03 0.03 0.03 0.03 0.03 0.04 0.04
0.02 0.02 0.02 0.02 0.02 0.02 0.02 0.02 0.02 0.02 0.02 0.02 0.02 0.02 0.03 0.04 0.04 0.04 0.04 0.04 0.04 0.03 0.03 0.03 0.03 0.03 0.04 0.04 0.04 0.04 0.03 0.02 0.02 0.03 0.03 0.04 0.05 0.06
0.02 0.02 0.02 0.02 0.03 0.03 0.03 0.02 0.02 0.02 0.02 0.02 0.02 0.02 0.03 0.03 0.04 0.04 0.04 0.04 0.04 0.03 0.03 0.03 0.03 0.04 0.04 0.04 0.03 0.03 0.03 0.02 0.02 0.03 0.03 0.03 0.03 0.04
MSLP
1018.60 1018.92 1019.19 1019.40 1019.57 1019.68 1019.77 1019.81 1019.83 1019.81 1019.76 1019.68 1019.57 1019.44 1019.31 1019.19 1019.08 1019.01 1018.95 1018.90 1018.84 1018.73 1018.55 1018.28 1017.93 1017.49 1017.00 1016.47 1015.94 1015.43 1014.97 1014.55 1014.18 1013.83 1013.49 1013.13 1012.75 1012.34
1018.48 1018.79 1019.05 1019.27 1019.44 1019.59 1019.70 1019.77 1019.82 1019.82 1019.78 1019.71 1019.59 1019.44 1019.28 1019.12 1018.97 1018.83 1018.71 1018.59 1018.45 1018.28 1018.04 1017.74 1017.35 1016.91 1016.42 1015.91 1015.40 1014.92 1014.49 1014.09 1013.73 1013.38 1013.03 1012.65 1012.24 1011.80
1018.38 1018.67 1018.92 1019.15 1019.34 1019.50 1019.64 1019.75 1019.83 1019.86 1019.84 1019.77 1019.66 1019.50 1019.31 1019.11 1018.90 1018.70 1018.51 1018.31 1018.09 1017.84 1017.54 1017.19 1016.78 1016.32 1015.83 1015.33 1014.85 1014.41 1014.00 1013.63 1013.28 1012.94 1012.59 1012.20 1011.77 1011.30
1018.29 1018.57 1018.83 1019.05 1019.26 1019.44 1019.61 1019.75 1019.85 1019.91 1019.92 1019.87 1019.75 1019.59 1019.39 1019.15 1018.90 1018.65 1018.38 1018.11 1017.81 1017.49 1017.12 1016.72 1016.27 1015.79 1015.29 1014.81 1014.34 1013.92 1013.53 1013.18 1012.85 1012.51 1012.16 1011.76 1011.32 1010.84
1018.25 1018.52 1018.77 1019.00 1019.21 1019.41 1019.59 1019.76 1019.89 1019.98 1020.01 1019.98 1019.88 1019.73 1019.52 1019.27 1018.99 1018.69 1018.38 1018.04 1017.68 1017.29 1016.86 1016.39 1015.90 1015.38 1014.87 1014.37 1013.90 1013.48 1013.10 1012.75 1012.42 1012.09 1011.73 1011.33 1010.88 1010.39
1018.28 1018.55 1018.79 1019.02 1019.23 1019.43 1019.62 1019.80 1019.95 1020.06 1020.12 1020.11 1020.04 1019.91 1019.71 1019.47 1019.19 1018.87 1018.52 1018.13 1017.72 1017.27 1016.78 1016.26 1015.71 1015.15 1014.59 1014.05 1013.56 1013.11 1012.70 1012.33 1011.99 1011.64 1011.27 1010.86 1010.41 1009.92
1018.40 1018.68 1018.92 1019.14 1019.34 1019.54 1019.73 1019.91 1020.06 1020.18 1020.26 1020.28 1020.24 1020.14 1019.97 1019.74 1019.47 1019.15 1018.79 1018.38 1017.93 1017.43 1016.89 1016.31 1015.70 1015.07 1014.45 1013.86 1013.30 1012.80 1012.34 1011.92 1011.53 1011.15 1010.76 1010.34 1009.89 1009.40
1018.66 1018.94 1019.18 1019.39 1019.58 1019.76 1019.93 1020.10 1020.24 1020.37 1020.45 1020.49 1020.47 1020.40 1020.26 1020.06 1019.81 1019.50 1019.14 1018.72 1018.25 1017.71 1017.13 1016.49 1015.81 1015.12 1014.43 1013.75 1013.12 1012.53 1012.00 1011.51 1011.06 1010.63 1010.20 1009.76 1009.30 1008.81
1019.04 1019.33 1019.57 1019.77 1019.94 1020.10 1020.25 1020.39 1020.51 1020.62 1020.70 1020.74 1020.73 1020.67 1020.55 1020.38 1020.14 1019.85 1019.50 1019.08 1018.58 1018.02 1017.40 1016.71 1015.98 1015.22 1014.45 1013.69 1012.97 1012.29 1011.67 1011.09 1010.56 1010.07 1009.59 1009.12 1008.65 1008.16
1019.54 1019.85 1020.09 1020.28 1020.44 1020.57 1020.68 1020.78 1020.86 1020.93 1020.98 1021.00 1020.98 1020.91 1020.80 1020.63 1020.40 1020.11 1019.76 1019.33 1018.83 1018.25 1017.59 1016.87 1016.09 1015.28 1014.45 1013.62 1012.81 1012.05 1011.34 1010.68 1010.07 1009.51 1008.98 1008.47 1007.97 1007.48
1020.13 1020.46 1020.70 1020.89 1021.02 1021.12 1021.19 1021.24 1021.27 1021.29 1021.28 1021.25 1021.19 1021.09 1020.95 1020.76 1020.51 1020.21 1019.84 1019.40 1018.88 1018.29 1017.62 1016.88 1016.07 1015.23 1014.36 1013.48 1012.62 1011.80 1011.02 1010.29 1009.61 1008.99 1008.40 1007.85 1007.33 1006.82
1020.78 1021.11 1021.36 1021.54 1021.66 1021.72 1021.74 1021.73 1021.70 1021.65 1021.57 1021.46 1021.33 1021.17 1020.97 1020.73 1020.45 1020.11 1019.71 1019.25 1018.71 1018.10 1017.42 1016.68 1015.87 1015.02 1014.15 1013.26 1012.38 1011.52 1010.70 1009.93 1009.20 1008.53 1007.90 1007.31 1006.76 1006.24
1021.44 1021.77 1022.02 1022.19 1022.28 1022.31 1022.28 1022.21 1022.10 1021.96 1021.80 1021.61 1021.39 1021.15 1020.87 1020.56 1020.21 1019.81 1019.37 1018.87 1018.31 1017.69 1017.01 1016.28 1015.49 1014.66 1013.81 1012.94 1012.07 1011.22 1010.39 1009.60 1008.85 1008.15 1007.49 1006.87 1006.29 1005.75
1022.08 1022.40 1022.63 1022.78 1022.84 1022.83 1022.75 1022.61 1022.43 1022.21 1021.96 1021.67 1021.36 1021.02 1020.66 1020.26 1019.84 1019.37 1018.88 1018.34 1017.75 1017.12 1016.44 1015.72 1014.96 1014.17 1013.36 1012.53 1011.70 1010.88 1010.08 1009.29 1008.54 1007.83 1007.15 1006.51 1005.91 1005.34
1022.67 1022.96 1023.17 1023.28 1023.31 1023.25 1023.12 1022.92 1022.67 1022.37 1022.03 1021.66 1021.26 1020.83 1020.38 1019.90 1019.40 1018.87 1018.31 1017.73 1017.11 1016.46 1015.79 1015.08 1014.35 1013.60 1012.84 1012.06 1011.28 1010.50 1009.73 1008.98 1008.24 1007.52 1006.84 1006.18 1005.56 1004.97
1023.21 1023.45 1023.62 1023.69 1023.67 1023.57 1023.39 1023.13 1022.81 1022.45 1022.04 1021.59 1021.11 1020.61 1020.09 1019.54 1018.98 1018.39 1017.78 1017.15 1016.50 1015.83 1015.14 1014.44 1013.73 1013.01 1012.28 1011.55 1010.81 1010.08 1009.34 1008.61 1007.89 1007.18 1006.49 1005.83 1005.19 1004.58
1023.70 1023.89 1023.99 1024.02 1023.95 1023.80 1023.57 1023.26 1022.89 1022.47 1022.00 1021.50 1020.97 1020.42 1019.84 1019.25 1018.63 1018.00 1017.35 1016.67 1015.99 1015.29 1014.58 1013.87 1013.16 1012.44 1011.73 1011.02 1010.31 1009.60 1008.89 1008.18 1007.47 1006.77 1006.07 1005.39 1004.74 1004.12
1024.17 1024.29 1024.33 1024.30 1024.18 1023.98 1023.70 1023.34 1022.93 1022.47 1021.96 1021.43 1020.87 1020.28 1019.68 1019.06 1018.42 1017.75 1017.06 1016.36 1015.63 1014.90 1014.16 1013.42 1012.68 1011.95 1011.22 1010.51 1009.80 1009.09 1008.39 1007.68 1006.97 1006.27 1005.56 1004.87 1004.20 1003.56
1024.64 1024.69 1024.67 1024.58 1024.41 1024.16 1023.83 1023.43 1022.98 1022.48 1021.95 1021.40 1020.82 1020.23 1019.61 1018.98 1018.32 1017.64 1016.93 1016.19 1015.44 1014.66 1013.88 1013.09 1012.31 1011.54 1010.79 1010.05 1009.32 1008.60 1007.88 1007.16 1006.45 1005.73 1005.02 1004.31 1003.62 1002.96
1025.12 1025.11 1025.03 1024.89 1024.66 1024.36 1023.99 1023.56 1023.07 1022.55 1022.00 1021.43 1020.84 1020.24 1019.63 1018.99 1018.33 1017.64 1016.92 1016.16 1015.37 1014.56 1013.73 1012.90 1012.07 1011.25 1010.46 1009.68 1008.92 1008.17 1007.43 1006.70 1005.98 1005.25 1004.52 1003.80 1003.10 1002.41
1025.62 1025.56 1025.43 1025.23 1024.96 1024.61 1024.20 1023.73 1023.21 1022.66 1022.09 1021.50 1020.91 1020.31 1019.70 1019.06 1018.41 1017.71 1016.98 1016.21 1015.40 1014.56 1013.69 1012.82 1011.95 1011.10 1010.26 1009.45 1008.66 1007.90 1007.15 1006.41 1005.68 1004.94 1004.21 1003.48 1002.76 1002.06
1026.12 1026.01 1025.84 1025.60 1025.29 1024.90 1024.44 1023.93 1023.38 1022.80 1022.21 1021.61 1021.01 1020.40 1019.79 1019.16 1018.51 1017.82 1017.09 1016.31 1015.49 1014.63 1013.75 1012.86 1011.97 1011.09 1010.24 1009.41 1008.62 1007.86 1007.11 1006.38 1005.66 1004.94 1004.21 1003.48 1002.75 1002.02
1026.58 1026.44 1026.23 1025.95 1025.60 1025.17 1024.68 1024.13 1023.55 1022.95 1022.33 1021.72 1021.11 1020.50 1019.89 1019.27 1018.62 1017.94 1017.22 1016.45 1015.64 1014.79 1013.91 1013.03 1012.14 1011.28 1010.43 1009.63 1008.86 1008.12 1007.40 1006.71 1006.01 1005.32 1004.61 1003.89 1003.16 1002.42
Thickness
5552 5552 5552 5553 5553 5552 5551 5549 5547 5547 5549 5551 5549 5548 5546 5544 5541 5539 5538 5536 5536 5535 5534 5533 5531 5530 5529 5528 5527 5526 5525 5524 5523 5522 5521 5521 5520 5520
5542 5542 5542 5543 5543 5543 5542 5541 5540 5538 5539 5542 5541 5539 5537 5535 5533 5531 5530 5529 5528 5528 5527 5526 5525 5524 5522 5521 5520 5519 5517 5516 5515 5514 5513 5512 5512 5511
5533 5532 5533 5533 5534 5534 5533 5533 5533 5531 5531 5533 5532 5531 5529 5527 5526 5524 5523 5522 5521 5520 5520 5520 5519 5517 5516 5515 5513 5511 5510 5509 5507 5506 5504 5504 5503 5503
5524 5524 5524 5524 5525 5525 5525 5525 5525 5525 5524 5523 5524 5523 5521 5520 5518 5516 5515 5514 5513 5513 5513 5513 5512 5511 5510 5508 5506 5504 5503 5501 5499 5497 5496 5495 5494 5494
5515 5515 5515 5515 5515 5515 5516 5516 5516 5517 5517 5516 5515 5514 5513 5512 5509 5508 5507 5506 5506 5506 5506 5505 5504 5503 5502 5501 5499 5497 5495 5494 5492 5490 5488 5487 5486 5485
5506 5507 5507 5506 5506 5506 5507 5507 5507 5507 5508 5507 5506 5504 5503 5502 5500 5499 5499 5499 5499 5499 5498 5497 5496 5495 5494 5493 5491 5490 5488 5486 5484 5482 5481 5479 5478 5478
5497 5498 5498 5498 5497 5497 5498 5498 5498 5498 5498 5497 5496 5494 5493 5491 5490 5490 5490 5491 5491 5491 5490 5489 5489 5488 5486 5485 5484 5482 5480 5479 5477 5476 5474 5473 5473 5473
5488 5488 5488 5488 5488 5488 5488 5489 5490 5489 5489 5488 5486 5485 5484 5482 5481 5481 5481 5482 5484 5485 5482 5482 5481 5480 5479 5478 5477 5476 5474 5473 5472 5471 5470 5469 5469 5469
5478 5478 5478 5479 5478 5478 5479 5479 5480 5480 5481 5480 5478 5477 5477 5476 5476 5475 5475 5474 5475 5476 5475 5475 5474 5473 5472 5471 5470 5470 5469 5468 5467 5466 5465 5465 5465 5465
5468 5468 5468 5469 5469 5469 5470 5470 5470 5471 5471 5471 5471 5471 5471 5471 5470 5470 5469 5469 5469 5469 5468 5467 5467 5466 5466 5466 5465 5464 5464 5463 5462 5462 5461 5461 5461 5460
5458 5459 5459 5459 5460 5460 5460 5460 5461 5461 5462 5462 5463 5463 5464 5464 5465 5464 5462 5462 5463 5463 5461 5460 5460 5460 5461 5461 5460 5459 5459 5458 5457 5457 5456 5456 5456 5456
5448 5449 5450 5450 5451 5451 5450 5450 5451 5452 5453 5454 5455 5456 5456 5457 5457 5457 5456 5455 5455 5455 5455 5453 5453 5452 5454 5456 5455 5455 5454 5453 5453 5452 5451 5451 5452 5452
5438 5439 5440 5440 5441 5442 5441 5441 5443 5443 5444 5444 5445 5447 5448 5449 5449 5449 5449 5448 5448 5448 5448 5446 5445 5445 5445 5447 5449 5450 5449 5448 5448 5448 5447 5447 5447 5448
5428 5429 5430 5431 5432 5432 5433 5433 5434 5434 5434 5435 5436 5437 5439 5440 5441 5442 5443 5443 5443 5442 5442 5440 5440 5440 5440 5441 5442 5444 5444 5444 5443 5443 5443 5444 5444 5445
5418 5419 5420 5421 5422 5422 5423 5424 5423 5423 5424 5426 5427 5428 5429 5431 5433 5435 5436 5437 5437 5438 5438 5437 5437 5436 5436 5436 5436 5437 5438 5439 5439 5439 5439 5440 5441 5442
5407 5409 5410 5411 5412 5413 5413 5413 5413 5414 5415 5417 5418 5420 5421 5423 5426 5428 5429 5431 5432 5432 5432 5433 5433 5433 5433 5433 5432 5433 5433 5433 5434 5435 5436 5437 5439 5440
5398 5399 5400 5400 5401 5402 5403 5404 5404 5405 5407 5408 5410 5411 5413 5416 5418 5421 5422 5423 5424 5425 5426 5427 5428 5429 5429 5429 5429 5430 5430 5430 5430 5431 5432 5434 5437 5438
5388 5389 5390 5391 5392 5392 5394 5395 5396 5397 5399 5401 5402 5404 5406 5408 5410 5413 5415 5416 5418 5419 5419 5421 5422 5424 5425 5426 5426 5426 5426 5426 5427 5428 5428 5429 5432 5435
5377 5378 5380 5381 5382 5383 5384 5386 5387 5389 5390 5393 5395 5397 5399 5401 5403 5405 5408 5409 5411 5412 5413 5415 5416 5418 5420 5421 5422 5423 5422 5423 5424 5425 5425 5426 5427 5430
5367 5368 5370 5372 5373 5374 5376 5378 5380 5381 5383 5385 5387 5390 5392 5394 5397 5399 5401 5403 5405 5406 5408 5410 5411 5412 5414 5415 5415 5417 5419 5420 5421 5421 5422 5423 5424 5427
5358 5359 5360 5362 5364 5366 5368 5370 5372 5374 5376 5378 5380 5382 5384 5387 5390 5393 5396 5398 5400 5401 5404 5405 5406 5407 5408 5409 5410 5413 5415 5417 5418 5418 5419 5419 5420 5421
5348 5350 5352 5353 5355 5357 5359 5361 5364 5366 5368 5370 5373 5375 5378 5381 5384 5387 5390 5392 5394 5396 5398 5400 5401 5403 5405 5406 5407 5408 5410 5413 5415 5416 5416 5416 5415 5416
5340 5341 5343 5345 5348 5349 5351 5353 5356 5358 5360 5363 5366 5369 5371 5375 5378 5381 5384 5386 5388 5390 5392 5394 5396 5399 5401 5402 5402 5403 5405 5407 5409 5411 5413 5414 5415 5416